Location: Podia
(1.5569°N, 32.3469°E)
Time: 20:55:48
(UTC+00:00)

S-56A Canister/Altair - Pass Details

Date: 04 October 2020
Orbit: 632 x 2500 km, 38.9° (Epoch: 20 October)

Event Time Altitude Azimuth Distance (km) Brightness Sun altitude
Rises 18:32:27 0° 314° (NW) 5,316 12.2 -43.3°
Reaches altitude 10° 18:36:25 10° 316° (NW) 4,035 11.5 -44.3°
Enters shadow 18:41:30 31° 320° (NW) 2,388 10.1 -45.6°
